www.pogodaiklimat.ru

Погода и климат >> Архив погоды >> Япония >> Цу


ПОГОДА в Цу

  • Прогноз погоды в Цу
  • Монитор погоды в Цу

АРХИВ ПОГОДЫ в Цу

Время (UTC), дата Ветер
(напр.,м/с)
 
Видим.   Явления Облачность Т
(С)
Тd
(С)
f
(%)
Тe
(С)
Тes
(С)
Комфортность P
(гПа)
Po
(гПа)
Тmin
(С)
Tmax
(С)
R
(мм)
R24
(мм)
S
(см)
22 10.06 СЗ 1 н/о н/о +19.7 +15.0 74 +23 +23 комфорт 1005.9 1003.8
23 10.06 В 2 н/о н/о +21.6 +14.5 64 +25 +25 комфорт 1006.0 1003.9
00 11.06 В 2 20 км 5/1
[Cu med, cong Ac trans Ci fib]
+21.9 +15.5 67 +26 +35 душно 1005.9 1003.8 +17.2
01 11.06 В 2 н/о н/о +23.1 +15.4 62 +27 +27 душно 1005.7 1003.6
02 11.06 ЮВ 3 н/о н/о +22.2 +15.6 66 +26 +26 душно 1005.6 1003.5
03 11.06 ЮВ 3 н/о н/о +20.7 +16.9 79 +25 +25 комфорт 1005.7 1003.6
04 11.06 ЮВ 4 н/о н/о +21.3 +17.3 78 +25 +25 комфорт 1005.3 1003.2
05 11.06 ЮВ 4 н/о н/о +21.6 +17.8 79 +26 +26 душно 1005.0 1002.9
06 11.06 Ю 5 20 км в посл. час ливневой дождь 9/8
[Cu med, cong Ac trans]
+23.3 +17.8 71 +29 +30 душно 1004.7 1002.6 3
07 11.06 ЮВ 4 н/о н/о +23.2 +16.7 67 +28 +28 душно 1004.0 1001.9
08 11.06 ЮВ 4 н/о н/о +23.4 +17.9 71 +29 +29 душно 1003.8 1001.7
09 11.06 Ю 5 н/о н/о +22.0 +16.1 69 +26 +26 душно 1004.0 1001.9
10 11.06 С 1 н/о н/о +20.3 +17.3 83 +25 +25 комфорт 1005.2 1003.1
11 11.06 СЗ 3 н/о н/о +19.9 +16.7 82 +23 +23 комфорт 1005.9 1003.8
12 11.06 С 3 20 км в посл. час ливневой дождь {гроза} 9/8
[Cu med, cong Ac As]
+19.2 +16.1 82 +21 +21 комфорт 1006.1 1004.0 +23.9 4
13 11.06 С 2 н/о н/о +19.2 +15.9 81 +22 +22 комфорт 1006.5 1004.4
14 11.06 З 3 н/о н/о +18.7 +15.8 83 +20 +20 1006.4 1004.3
15 11.06 СЗ 1 н/о н/о +18.0 +15.5 85 +19 +19 1006.5 1004.3
16 11.06 З 1 н/о н/о +17.8 +15.3 85 +19 +19 1006.3 1004.1
17 11.06 З 1 н/о н/о +17.7 +15.2 85 +19 +19 1006.5 1004.3
18 11.06 СЗ 2 н/о н/о +17.8 +15.1 84 +18 +18 1006.7 1004.5
19 11.06 СЗ 2 н/о н/о +17.6 +15.1 85 +18 +18 1007.0 1004.8
20 11.06 СЗ 2 н/о н/о +18.0 +15.3 84 +19 +19 1007.2 1005.0
21 11.06 З 2 н/о н/о +18.5 +15.6 83 +20 +20 1007.5 1005.3
22 11.06 СЗ 1 н/о н/о +19.3 +15.8 80 +22 +22 комфорт 1007.7 1005.6
23 11.06 С 3 н/о н/о +19.9 +15.8 77 +23 +23 комфорт 1008.1 1006.0
00 12.06 В 4 10 км 4/4
[Cu Sc Ac trans]
+21.2 +16.2 73 +25 +30 комфорт 1008.0 1005.9 +17.5
01 12.06 В 5 н/о н/о +21.4 +15.3 68 +25 +25 комфорт 1008.1 1006.0
02 12.06 В 3 н/о н/о +21.5 +16.0 71 +25 +25 комфорт 1008.0 1005.9
03 12.06 В 4 н/о н/о +22.4 +16.2 68 +27 +27 душно 1007.7 1005.6
04 12.06 ЮВ 3 н/о н/о +21.9 +16.0 69 +26 +26 душно 1007.4 1005.3
05 12.06 ЮВ 4 н/о н/о +23.2 +16.5 66 +28 +28 душно 1006.9 1004.8
06 12.06 ЮВ 3 30 км 8/6
[Cu med, cong Ac trans]
+23.4 +16.0 63 +28 +31 душно 1006.7 1004.6
07 12.06 ЮВ 4 н/о н/о +23.2 +15.5 62 +27 +27 душно 1006.8 1004.7
08 12.06 ЮВ 4 н/о н/о +23.6 +15.7 61 +27 +27 жарко 1006.8 1004.7
09 12.06 Ю 3 н/о н/о +23.6 +16.4 64 +27 +27 жарко 1007.1 1005.0
10 12.06 ЮВ 2 н/о н/о +23.0 +15.8 64 +27 +27 душно 1008.2 1006.1
11 12.06 ЮВ 2 н/о н/о +22.6 +16.4 68 +27 +27 душно 1008.8 1006.7
12 12.06 С 3 20 км зарница 8/4
[Cu med, cong Ac trans]
+21.7 +14.4 63 +25 +25 комфорт 1009.9 1007.8 +24.4
13 12.06 С 3 н/о н/о +20.7 +14.6 68 +24 +24 комфорт 1010.1 1008.0
14 12.06 З 1 н/о н/о +20.4 +14.3 68 +24 +24 комфорт 1010.5 1008.4
15 12.06 ЮЗ 1 н/о н/о +20.4 +14.3 68 +24 +24 комфорт 1010.7 1008.6
16 12.06 ЮЗ 2 н/о н/о +19.8 +14.2 70 +23 +23 комфорт 1010.7 1008.6
17 12.06 СЗ 2 н/о н/о +19.3 +14.4 73 +22 +22 комфорт 1010.9 1008.7
18 12.06 СЗ 2 н/о н/о +18.8 +14.5 76 +20 +20 1010.9 1008.7
19 12.06 СЗ 2 н/о н/о +18.6 +14.5 77 +20 +20 1011.1 1008.9
20 12.06 З 2 н/о н/о +18.7 +14.8 78 +20 +20 1011.5 1009.3
21 12.06 СЗ 2 н/о н/о +18.7 +14.8 78 +20 +20 1011.9 1009.7
22 12.06 С 3 н/о н/о +19.6 +15.5 77 +22 +22 комфорт 1012.7 1010.5
23 12.06 СВ 2 н/о н/о +20.8 +15.1 70 +24 +24 комфорт 1013.0 1010.9
00 13.06 СВ 2 20 км {ливн. осадки} 3/3
[Cu Sc]
+21.7 +14.6 64 +25 +34 комфорт 1013.5 1011.4 +18.5 0.0
01 13.06 В 3 н/о н/о +22.7 +15.3 63 +27 +27 душно 1013.2 1011.1
02 13.06 В 4 н/о н/о +23.3 +15.9 63 +28 +28 душно 1013.1 1011.0
03 13.06 ЮВ 4 н/о н/о +24.0 +15.8 60 +27 +27 жарко 1012.6 1010.5
04 13.06 В 6 н/о н/о +24.6 +15.8 58 +28 +28 душно 1012.3 1010.2
05 13.06 ЮВ 4 н/о н/о +24.6 +16.6 61 +28 +28 душно 1012.1 1010.0
06 13.06 В 6 40 км 1/1
[Cu med, cong]
+25.5 +16.4 57 +29 +33 душно 1011.8 1009.7
07 13.06 В 7 н/о н/о +24.7 +17.9 66 +29 +29 душно 1011.5 1009.4
08 13.06 ЮВ 8 н/о н/о +24.0 +17.7 68 +28 +28 душно 1011.5 1009.4
09 13.06 В 7 н/о н/о +23.5 +18.2 72 +28 +28 душно 1012.0 1009.9
10 13.06 ЮВ 4 н/о н/о +23.3 +18.4 74 +29 +29 душно 1012.5 1010.4
11 13.06 ЮВ 5 н/о н/о +23.1 +17.3 70 +28 +28 душно 1012.9 1010.8
12 13.06 ЮВ 3 30 км 8/8
[Cu med, cong]
+22.8 +17.3 71 +28 +28 душно 1013.3 1011.2 +25.7
13 13.06 ЮВ 3 н/о н/о +22.8 +17.7 73 +28 +28 душно 1013.5 1011.4
14 13.06 ЮВ 2 н/о н/о +22.5 +18.1 76 +28 +28 душно 1013.4 1011.3
15 13.06 В 4 н/о н/о +22.2 +18.2 78 +27 +27 душно 1013.4 1011.3
16 13.06 В 4 н/о н/о +22.1 +18.5 80 +27 +27 душно 1013.4 1011.3
17 13.06 В 5 н/о н/о +22.2 +18.2 78 +27 +27 душно 1012.9 1010.8
18 13.06 В 5 н/о н/о +21.9 +17.9 78 +27 +27 душно 1012.7 1010.6 0.0
19 13.06 В 5 н/о н/о +21.8 +17.4 76 +26 +26 душно 1012.3 1010.2
20 13.06 В 5 н/о н/о +21.6 +17.4 77 +26 +26 душно 1012.4 1010.3
21 13.06 В 5 н/о н/о +22.3 +17.5 74 +27 +27 душно 1012.5 1010.4
22 13.06 В 5 н/о н/о +22.0 +17.4 75 +26 +26 душно 1012.5 1010.4
23 13.06 В 6 н/о н/о +22.0 +17.2 74 +26 +26 душно 1012.5 1010.4
00 14.06 ЮВ 5 5000 м слаб. ливневой дождь 10/8
[Cu med, cong Ac As]
+22.0 +17.6 76 +27 +27 душно 1012.4 1010.3 +21.6 0.0
01 14.06 В 8 н/о н/о +21.0 +18.2 84 +25 +25 комфорт 1011.8 1009.7
02 14.06 В 8 н/о н/о +22.4 +18.8 80 +28 +28 душно 1011.5 1009.4
03 14.06 ЮВ 5 н/о н/о +22.6 +18.6 78 +28 +28 душно 1011.5 1009.4
04 14.06 В 9 н/о н/о +22.8 +18.6 77 +29 +29 очень
душно
1010.8 1008.7
05 14.06 ЮВ 6 н/о н/о +23.1 +18.2 74 +29 +29 очень
душно
1010.4 1008.3
06 14.06 ЮВ 8 15 км {ливн. осадки} 10/8
[Cu med, cong Ac As]
+23.4 +18.1 72 +29 +29 душно 1009.7 1007.6 0.5
07 14.06 ЮВ 10 н/о н/о +23.0 +17.9 73 +28 +28 душно 1009.3 1007.2
08 14.06 ЮВ 8 н/о н/о +22.6 +17.7 74 +28 +28 душно 1009.0 1006.9
09 14.06 ЮВ 9 н/о н/о +22.7 +17.0 70 +27 +27 душно 1009.2 1007.1
10 14.06 ЮВ 7 н/о н/о +22.1 +16.2 69 +26 +26 душно 1009.5 1007.4
11 14.06 ЮВ 8 н/о н/о +21.9 +16.4 71 +26 +26 душно 1009.2 1007.1
12 14.06 В 9 20 км слаб. ливневой дождь 10/10
[Cu med, cong]
+21.3 +17.9 81 +25 +25 комфорт 1008.8 1006.7 +23.6 1
13 14.06 В 9 н/о н/о +20.3 +17.5 84 +23 +23 комфорт 1008.4 1006.3
14 14.06 В 10 н/о н/о +19.7 +16.7 83 +21 +21 комфорт 1007.7 1005.6
15 14.06 В 11 н/о н/о +19.4 +16.5 83 +20 +20 1006.5 1004.4
16 14.06 В 9 н/о н/о +19.1 +16.7 86 +20 +20 1005.5 1003.4
17 14.06 В 9 н/о н/о +18.7 +16.3 86 +19 +19 1004.7 1002.6
18 14.06 В 10 н/о н/о +18.3 +15.8 85 +18 +18 1004.1 1002.0 19
19 14.06 В 7 н/о н/о +18.0 +15.3 84 +17 +17 1003.8 1001.7
20 14.06 В 8 н/о н/о +18.1 +15.9 87 +17 +17 1002.8 1000.7
21 14.06 В 9 н/о н/о +18.3 +15.2 82 +18 +18 1001.9 999.8
22 14.06 СВ 3 н/о н/о +17.9 +15.2 84 +18 +18 1001.1 999.0
23 14.06 ЮЗ 1 н/о н/о +17.6 +15.1 85 +19 +19 999.4 997.3
00 15.06 ЮЗ 2 10 км слаб. ливневой дождь 10/8
[Cu med, cong Ac As]
+18.3 +15.6 84 +19 +20 998.2 996.1 +17.5 24
01 15.06 ЮЗ 3 н/о н/о +18.3 +15.6 84 +19 +19 997.3 995.2
02 15.06 З 3 н/о н/о +18.5 +15.0 80 +19 +19 995.8 993.7
03 15.06 ЮЗ 3 н/о н/о +19.1 +15.8 81 +21 +21 комфорт 994.3 992.2
04 15.06 З 2 н/о н/о +18.7 +15.8 83 +20 +20 993.0 990.9
05 15.06 СВ 1 н/о н/о +19.6 +16.6 83 +23 +23 комфорт 991.9 989.8
06 15.06 ЮВ 2 4000 м ливневой дождь 10/10
[Cu med, cong]
+19.1 +17.1 88 +22 +22 комфорт 990.9 988.8 6
07 15.06 В 7 н/о н/о +19.3 +17.5 89 +21 +21 комфорт 989.1 987.0
08 15.06 В 14 н/о н/о +20.9 +18.5 86 +24 +24 комфорт 987.9 985.8
09 15.06 В 15 н/о н/о +21.2 +19.0 87 +26 +26 душно 986.4 984.3
10 15.06 З 3 н/о н/о +20.8 +18.2 85 +25 +25 комфорт 986.9 984.8
11 15.06 З 2 н/о н/о +20.6 +17.6 83 +25 +25 комфорт 988.2 986.1
12 15.06 ЮЗ 5 15 км слаб. ливневой дождь {гроза} 9/9
[Cu med, cong]
+20.4 +17.0 81 +24 +24 комфорт 989.2 987.1 +21.5 18
13 15.06 ЮЗ 4 н/о н/о +19.9 +16.7 82 +22 +22 комфорт 989.4 987.3
14 15.06 З 5 н/о н/о +19.6 +15.7 78 +21 +21 комфорт 989.6 987.5
15 15.06 З 5 н/о н/о +19.7 +15.4 76 +22 +22 комфорт 990.4 988.3
16 15.06 З 4 н/о н/о +19.7 +15.2 75 +22 +22 комфорт 991.3 989.2
17 15.06 З 6 н/о н/о +20.2 +14.8 71 +22 +22 комфорт 991.9 989.8
18 15.06 ЮЗ 2 н/о н/о +20.5 +14.6 69 +24 +24 комфорт 992.7 990.6 2
19 15.06 З 6 н/о н/о +20.3 +14.2 68 +22 +22 комфорт 994.1 992.0
20 15.06 З 5 н/о н/о +20.3 +14.0 67 +23 +23 комфорт 995.2 993.1
21 15.06 З 4 н/о н/о +20.4 +13.9 66 +23 +23 комфорт 996.5 994.4
22 15.06 З 4 н/о н/о +20.8 +13.5 63 +24 +24 комфорт 997.1 995.0
23 15.06 З 4 н/о н/о +21.4 +13.3 60 +24 +24 комфорт 997.9 995.8
00 16.06 З 4 40 км {ливн. осадки} 9/9
[Cu med, cong Ac trans]
+21.8 +12.9 57 +24 +25 комфорт 998.7 996.6 +19.4 2
01 16.06 З 6 н/о н/о +22.1 +13.2 57 +25 +25 комфорт 999.4 997.3
02 16.06 З 7 н/о н/о +24.7 +12.3 46 +26 +26 жарко 999.6 997.5
03 16.06 СЗ 6 н/о н/о +25.6 +12.1 43 +27 +27 жарко 999.3 997.2
04 16.06 З 6 н/о н/о +26.1 +10.7 38 +27 +27 жарко 999.9 997.8
05 16.06 З 8 н/о н/о +26.1 +11.1 39 +27 +27 жарко 1000.3 998.2
06 16.06 СЗ 8 40 км 8/8
[Cu med, cong]
+23.3 +12.9 52 +26 +27 жарко 1001.2 999.1
07 16.06 СЗ 10 н/о н/о +22.2 +12.7 55 +25 +25 комфорт 1002.2 1000.1
08 16.06 СЗ 7 н/о н/о +23.4 +11.8 48 +26 +26 жарко 1003.0 1000.9
09 16.06 СЗ 5 н/о н/о +22.8 +11.2 48 +25 +25 комфорт 1004.0 1001.9
10 16.06 СЗ 6 н/о н/о +21.7 +11.1 51 +24 +24 комфорт 1004.9 1002.8
11 16.06 СЗ 4 н/о н/о +20.8 +11.2 54 +23 +23 комфорт 1006.0 1003.9
12 16.06 СЗ 3 30 км 9/4
[Cu med, cong Ac trans Ci sp]
+20.2 +11.7 58 +22 +22 комфорт 1007.3 1005.2 +27.1
13 16.06 СЗ 3 н/о н/о +20.0 +11.2 57 +22 +22 комфорт 1008.1 1006.0
14 16.06 З 4 н/о н/о +19.6 +11.1 58 +21 +21 комфорт 1008.8 1006.7
15 16.06 СЗ 6 н/о н/о +18.3 +12.1 67 +18 +18 1008.5 1006.3
16 16.06 З 6 н/о н/о +18.4 +11.7 65 +18 +18 1008.5 1006.3
17 16.06 СЗ 4 н/о н/о +18.4 +11.2 63 +19 +19 1008.4 1006.2
18 16.06 З 6 н/о н/о +18.3 +11.4 64 +18 +18 1009.0 1006.8 0.0
19 16.06 СЗ 4 н/о н/о +18.4 +11.2 63 +19 +19 1009.9 1007.7
20 16.06 СЗ 2 н/о н/о +18.3 +11.6 65 +19 +19 1010.8 1008.6
21 16.06 СЗ 6 н/о н/о +18.5 +11.6 64 +18 +18 1011.1 1008.9
22 16.06 СЗ 5 н/о н/о +19.7 +11.0 57 +21 +21 комфорт 1011.4 1009.2
23 16.06 СЗ 6 н/о н/о +20.7 +10.8 53 +22 +22 комфорт 1011.7 1009.6
00 17.06 СЗ 6 40 км 9/1
[Cu med, cong Ci sp]
+21.4 +10.3 49 +23 +27 комфорт 1012.0 1009.9 +17.8 0.0
01 17.06 З 5 н/о н/о +23.0 +11.1 47 +25 +25 комфорт 1012.1 1010.0
02 17.06 СЗ 5 н/о н/о +23.1 +10.2 44 +25 +25 комфорт 1012.0 1009.9
03 17.06 З 6 н/о н/о +23.6 +10.3 43 +25 +25 комфорт 1011.7 1009.6
04 17.06 З 5 н/о н/о +25.0 +10.1 39 +26 +26 жарко 1011.4 1009.3
05 17.06 СЗ 6 н/о н/о +25.7 +9.1 35 +26 +26 жарко 1011.0 1008.9
06 17.06 СЗ 6 40 км 3/1
[Cu hum Ci sp]
+25.9 +9.3 35 +26 +30 жарко 1010.7 1008.6
07 17.06 СЗ 6 н/о н/о +25.5 +10.2 38 +26 +26 жарко 1010.7 1008.6
08 17.06 СЗ 6 н/о н/о +24.7 +10.2 40 +26 +26 жарко 1010.8 1008.7
09 17.06 СЗ 5 н/о н/о +24.2 +9.8 40 +25 +25 комфорт 1011.1 1009.0
10 17.06 СЗ 4 н/о н/о +22.8 +9.6 43 +24 +24 комфорт 1011.5 1009.4
11 17.06 З 4 н/о н/о +21.9 +9.8 46 +23 +23 комфорт 1011.6 1009.5
12 17.06 З 4 40 км 5/1
[Cu hum Ci fib]
+21.8 +9.0 44 +23 +23 комфорт 1012.1 1010.0 +26.3
13 17.06 З 3 н/о н/о +20.5 +10.0 51 +23 +23 комфорт 1012.8 1010.7
14 17.06 З 3 н/о н/о +20.6 +9.5 49 +23 +23 комфорт 1012.8 1010.7
15 17.06 ЮЗ 2 н/о н/о +20.2 +9.5 50 +22 +22 комфорт 1013.0 1010.8
16 17.06 Ю 1 н/о н/о +20.3 +9.9 51 +23 +23 комфорт 1012.9 1010.8
18 17.06 СЗ 1 н/о н/о +19.2 +10.8 58 +21 +21 комфорт 1013.3 1011.1
19 17.06 СЗ 2 н/о н/о +18.9 +10.2 57 +20 +20 1013.1 1010.9
20 17.06 З 2 н/о н/о +18.2 +10.8 62 +19 +19 1013.2 1011.0
21 17.06 З 1 н/о н/о +18.8 +11.1 61 +21 +21 комфорт 1013.5 1011.3
22 17.06 С 1 н/о н/о +19.6 +11.1 58 +22 +22 комфорт 1013.9 1011.7

 

Местоположение метеостанции Цу (Япония): широта 34.73 долгота 136.51 высота над уровнем моря 18 м.

В архиве по умолчанию представлена погода в Цу за последнюю неделю. Архивные данные за месяц целиком и за предыдущие месяцы, начиная с января 2011 года, Вы можете получить, выбрав интересующий диапазон дат из раскрывающегося списка и нажав кнопку "Ввод!".


*Определитесь, кто Вы:
робот инопланетянин человек

Внимание! Время в таблицах - всемирное. Для получения местного времени необходимо прибавить поправку, которая равна 9 ч.

Смотрите также архив погоды в соседних городах и на ближайших метеорологических станциях:

Погода в Йоккаити (Япония) (23 км)
Погода в Уэно (Япония) (33 км)
Погода в Ирако (Япония) (55 км)
Погода в Наре (Япония) (62 км)
Погода в Нагоя (Япония) (64 км)
Погода в Хиконе (Япония) (66 км)
Погода в Гифу (Япония) (78 км)
Погода в Киото (Япония) (78 км)
Погода в Овасе (Япония) (79 км)
Погода в Осаке (Япония) (92 км)

Пояснения к столбцам:

Ветер - указаны скорость ветра в м/с - средняя за 10 мин, порывы в срок и между сроками (в фигурных скобках) и направление, откуда дует ветер: С - северный, СВ - северо-восточный, В - восточный, ЮВ - юго-восточный, Ю - южный, ЮЗ - юго-западный, З - западный, СЗ - северо-западный.
Видимость - горизонтальная дальность видимости в метрах или километрах. При видимости от 1 до 10 км при отсутствии осадков обычно наблюдается дымка, при ухудшении видимости до 1 км и менее - туман. В сухую погоду видимость может ухудшаться дымом, пылью или мглою.
Явления - указаны атмосферные явления, наблюдавшиеся в срок или в последний час перед сроком; фигурными скобками обозначены явления, наблюдавшиеся между сроками (за 1-3 часа до срока); квадратными скобками обозначены град или гололедные отложения с указанием их диаметра в мм.
Облачность - указаны через наклонную черту общая и нижняя облачность в баллах и высота нижней границы облаков в метрах; квадратными скобками обозначены формы облаков: Ci - перистые, Cs - перисто-слоистые, Cc - перисто-кучевые, Ac - высококучевые, As - высокослоистые, Sc - слоисто-кучевые, Ns - слоисто-дождевые, Cu - кучевые, Cb - кучево-дождевые. Подробнее классификацию облаков см. в Атласе облаков (PDF).
T - Температура воздуха - температура, измеренная на высоте 2 м над землей.
Td - Температура точки росы - температура, при понижении до которой содержащийся в воздухе водяной пар достигнет насыщения.
f - Относительная влажность воздуха - влажноcть воздуха, измеренная на высоте 2 м над землей.
Te - Эффективная температура - температура, которую ощущает одетый по сезону человек в тени. Характеристика душности погоды. При расчете учитывается влияние влажности воздуха и скорости ветра на теплоощущения человека.
Tes - Эффективная температура на солнце - температура, которую ощущает человек, с поправкой на солнечный нагрев. Характеристика знойности погоды. Зависит от высоты солнца над горизонтом, облачности и скорости ветра. Ночью, в пасмурную погоду, а также при ветре 12 м/с и более поправка равна нулю.
P - Атмосферное давление - приведенное к уровню моря атмосферное давление.
Po - Атмосферное давление - измеренное на уровне метеостанции атмосферное давление.
Tmin - Минимальная температура - минимум температуры воздуха на высоте 2 м над землей.
Tmax - Максимальная температура - максимум температуры воздуха на высоте 2 м над землей.
R - Количество осадков - Количество выпавших осадков за период времени, мм. При наведении курсора мыши на число - период времени, за который выпало указанное количество осадков.
R24 - Количество осадков - Количество выпавших осадков за 24 часа, мм.
S - Снежный покров - Высота снежного покрова, см. При наведении курсора мыши на число - состояние снежного покрова и степень покрытия местности в баллах.